Monticello, KY

4:45 PM EDT on May 25, 2017 (GMT -0400)
Wayne County

Weather History for KEKQ - January, 2012

Change the Weather History Date:

Sunday, January 8, 2012

  Actual Average Record
Temperature  
Mean Temperature 36 °F -  
Max Temperature 52 °F 41 °F 70 °F (1965)
Min Temperature 20 °F 22 °F -5 °F (1970)
Degree Days  
Heating Degree Days 29    
Moisture  
Dew Point 28 °F    
Average Humidity 70    
Maximum Humidity 96    
Minimum Humidity 43    
Precipitation  
Precipitation 0.00 in - - ()
Sea Level Pressure  
Sea Level Pressure 30.27 in    
Wind  
Wind Speed 3 mph (NNE)    
Max Wind Speed 13 mph    
Max Gust Speed -    
Visibility 10 miles    
Events      
Averages and records for this station are not official NWS values.
T = Trace of Precipitation, MM = Missing Value Source: NWS Daily Summary

Daily Weather History Graph

Daily Weather History Graph

Search for Another Location

Airport or City:

Trip Planner

Search our weather history database for the weather conditions in past years. The results will help you decide how hot, cold, wet, or windy it might be!

Date:

Astronomy

Jan. 08, 2012 Rise Set
Actual Time 6:52 AM CST 4:39 PM CST
Civil Twilight 6:24 AM CST 5:08 PM CST
Nautical Twilight 5:51 AM CST 5:40 PM CST
Astronomical Twilight 5:20 AM CST 6:11 PM CST
Moon 4:21 PM CST (1/8) 6:10 AM CST (1/8)
Length of Visible Light 10h 44m
Length of Day
9h 46m
Full, 100% of the Moon is Illuminated
Jan 8
Full
Jan 9
Full
Jan 16
Last Quarter
Jan 23
New
Jan 30
First Quarter

Hourly Weather History & Observations

Time (CST) Temp. Windchill Dew Point Humidity Pressure Visibility Wind Dir Wind Speed Gust Speed Precip Events Conditions
12:56 AM 24.1 °F - 22.1 °F 92% 30.23 in 10.0 mi Calm Calm - N/A   Clear
1:56 AM 24.1 °F - 23.0 °F 96% 30.23 in 10.0 mi Calm Calm - N/A   Clear
3:56 AM 22.1 °F - 21.0 °F 96% 30.25 in 10.0 mi Calm Calm - N/A   Clear
4:56 AM 20.1 °F - 19.0 °F 96% 30.26 in 10.0 mi Calm Calm - N/A   Clear
6:56 AM 26.1 °F 21.9 °F 24.1 °F 92% 30.27 in 10.0 mi NE 3.5 mph - N/A   Clear
7:56 AM 32.9 °F 27.5 °F 29.1 °F 86% 30.28 in 10.0 mi North 5.8 mph - N/A   Clear
8:56 AM 38.8 °F 33.2 °F 30.0 °F 71% 30.30 in 10.0 mi NNE 8.1 mph - N/A   Clear
9:56 AM 41.9 °F 36.9 °F 30.0 °F 63% 30.32 in 10.0 mi NNE 8.1 mph - N/A   Mostly Cloudy
10:56 AM 43.9 °F 39.9 °F 31.1 °F 61% 30.31 in 10.0 mi North 6.9 mph - N/A   Mostly Cloudy
11:56 AM 45.9 °F 42.9 °F 31.1 °F 56% 30.29 in 10.0 mi NNE 5.8 mph - N/A   Partly Cloudy
12:56 PM 48.9 °F - 31.1 °F 50% 30.27 in 10.0 mi NNE 9.2 mph - N/A   Scattered Clouds
2:56 PM 52.0 °F - 30.0 °F 43% 30.25 in 10.0 mi North 12.7 mph - N/A   Clear
3:56 PM 48.9 °F - 28.0 °F 44% 30.27 in 10.0 mi North 5.8 mph - N/A   Scattered Clouds
5:56 PM 43.9 °F 41.3 °F 30.0 °F 58% 30.29 in 10.0 mi NNE 4.6 mph - N/A   Overcast
6:56 PM 45.0 °F - 30.0 °F 56% 30.29 in 10.0 mi Calm Calm - N/A   Mostly Cloudy
7:56 PM 41.9 °F 39.0 °F 29.1 °F 61% 30.27 in 10.0 mi NNE 4.6 mph - N/A   Scattered Clouds
8:56 PM 37.9 °F - 28.0 °F 68% 30.27 in 10.0 mi Calm Calm - N/A   Clear
9:56 PM 34.9 °F 30.8 °F 28.0 °F 76% 30.25 in 10.0 mi NE 4.6 mph - N/A   Clear
11:56 PM 41.0 °F - 32.0 °F 70% 30.22 in 10.0 mi Calm Calm - N/A   Overcast